Location: Molveno
(46.1500°N, 10.9667°E)
Time: 08:14:24
(UTC+00:00)

Cosmos 1812 Rocket - Pass Details

Date: 05 July 2020
Orbit: 605 x 633 km, 82.5° (Epoch: 05 August)

Event Time Altitude Azimuth Distance (km) Brightness Sun altitude
Rises 20:16:13 0° 345° (NNW) 2,880 8.2 -9.5°
Reaches altitude 10° 20:18:30 10° 340° (NNW) 1,968 7.4 -9.7°
Maximum altitude 20:22:41 48° 267° (W) 797 4.4 -10.2°
Drops below altitude 10° 20:26:49 10° 193° (SSW) 1,947 5.8 -10.7°
Enters shadow 20:28:10 - 189° (S) 2,486 6.3 -10.8°
